Regional Weather Roundup
Issued by NWS Goodland, KS

Home | Current Version | Previous Version | Text Only | Print | Product List | Glossary Off
Versions: 1 2 3 4 5 6 7 8 9 10 11 12 13 14 15 16 17 18 19 20 21 22 23 24 25 26 27 28 29 30 31 32 33 34 35 36 37 38 39 40 41 42 43 44 45 46 47 48 49 50

000
ASUS43 KGLD 230408
RWRGLD

GOODLAND FORECAST AREA HOURLY WEATHER ROUNDUP
NATIONAL WEATHER SERVICE GOODLAND KS
1000 PM MDT TUE JUL 22 2014

...OFFICIAL OBSERVATIONS...

CITY           SKY/WX    TMP DP  RH WIND       PRES   REMARKS
GOODLAND KS    CLEAR     77  68  73 E10       30.24R
HILL CITY KS   CLEAR     82  72  71 E10       30.15R
IMPERIAL NEB   PTCLDY    77  60  55 E9        30.24R
MCCOOK NEB     CLEAR     77  64  64 E12       30.20R
AKRON CO       CLEAR     74  60  61 E10       30.28R
BURLINGTON CO  CLEAR     79  61  53 SE10      30.25R
LIMON CO       PTCLDY    76  56  49 E10       30.33R
$$

...UNOFFICIAL OBSERVATIONS...

CITY           SKY/WX    TMP DP  RH WIND       PRES   REMARKS
COLBY KS       CLEAR     79  72  78 NE13      30.21R HAZE
GOVE KS          N/A     81  32  17 MISG        N/A
LENORA KS        N/A     80  32  17 MISG        N/A
NORTON KS      CLEAR     79  64  61 NE13      30.17R
OBERLIN KS     FAIR      77  63  61 E10       30.19R
SHARON SPRINGS   N/A     76  67  72 S8          N/A
ST FRANCIS KS  CLEAR     77  63  61 E14       30.21R
WAKEENEY KS      N/A     82  70  68 MISG        N/A
KIT CARSON CO    N/A     83  59  43 N13G20      N/A
YUMA CO          N/A     77  63  61 E10         N/A
$$


USA.gov is the U.S. government's official web portal to all federal, state and local government web resources and services.